Pau, France

10:32 AM CEST on May 22, 2018 (GMT +0200)
Pau / Pyrenees

Weather History for LFBP - August, 2013

Change the Weather History Date:

Wednesday, August 7, 2013

  Actual Average Record
Temperature  
Mean Temperature 66 °F -  
Max Temperature 71 °F 76 °F 96 °F (2003)
Min Temperature 60 °F 57 °F 51 °F (2010)
Growing Degree Days 16 (Base 50)    
Moisture  
Dew Point 61 °F    
Average Humidity 88    
Maximum Humidity 100    
Minimum Humidity 64    
Precipitation  
Precipitation 0.00 in - - ()
Sea Level Pressure  
Sea Level Pressure 29.93 in    
Wind  
Wind Speed 5 mph ()    
Max Wind Speed 18 mph    
Max Gust Speed -    
Visibility 5.7 miles    
Events Rain , Thunderstorm    
Averages and records for this station are not official NWS values.
T = Trace of Precipitation, MM = Missing Value Source: Averaged Metar Reports

Daily Weather History Graph

Daily Weather History Graph

Search for Another Location

Airport or City:

Astronomy

Aug. 07, 2013 Rise Set
Actual Time 6:58 AM CEST 9:16 PM CEST
Civil Twilight 6:26 AM CEST 9:47 PM CEST
Nautical Twilight 5:46 AM CEST 10:27 PM CEST
Astronomical Twilight 5:02 AM CEST 11:10 PM CEST
Moon 7:35 AM CEST (8/7) 9:11 PM CEST (8/7)
Length of Visible Light 15h 21m
Length of Day
14h 18m
New Moon, 0% of the Moon is Illuminated
Aug 7
New Moon
Aug 14
First Quarter
Aug 21
Full
Aug 28
Last Quarter
Sep 5
New

Hourly Weather History & Observations

Time (CEST) Temp. Dew Point Humidity Pressure Visibility Wind Dir Wind Speed Gust Speed Precip Events Conditions
12:00 AM 66.2 °F 64.4 °F 94% 29.92 in 5.0 mi WNW 8.1 mph - N/A Rain , Thunderstorm Light Thunderstorms and Rain
12:30 AM 66.2 °F 64.4 °F 94% 29.92 in 3.7 mi West 8.1 mph - N/A Rain Light Rain
1:00 AM 64.4 °F 62.6 °F 94% 29.92 in 6.2 mi West 5.8 mph - N/A   Overcast
1:30 AM 64.4 °F 62.6 °F 94% 29.95 in 6.2 mi West 3.5 mph - N/A   Overcast
2:00 AM 64.4 °F 62.6 °F 94% 29.95 in 6.2 mi WNW 4.6 mph - N/A   Overcast
2:30 AM 64.4 °F 62.6 °F 94% 29.92 in 4.3 mi West 4.6 mph - N/A   Overcast
3:00 AM 64.4 °F 62.6 °F 94% 29.92 in 3.7 mi West 4.6 mph - N/A   Overcast
3:30 AM 64.4 °F 62.6 °F 94% 29.92 in 3.7 mi West 5.8 mph - N/A   Overcast
4:00 AM 64.4 °F 62.6 °F 94% 29.92 in - West 4.6 mph - N/A   Overcast
4:30 AM 64.4 °F 62.6 °F 94% 29.92 in 3.1 mi Variable 2.3 mph - N/A   Overcast
5:00 AM 64.4 °F 62.6 °F 94% 29.92 in 5.6 mi Variable 2.3 mph - N/A   Overcast
5:30 AM 64.4 °F 62.6 °F 94% 29.89 in 6.2 mi WNW 4.6 mph - N/A   Mostly Cloudy
6:00 AM 64.4 °F 62.6 °F 94% 29.89 in 6.2 mi Variable 2.3 mph - N/A   Mostly Cloudy
6:30 AM 64.4 °F 62.6 °F 94% 29.89 in 6.2 mi NNW 2.3 mph - N/A   Mostly Cloudy
7:00 AM 62.6 °F 60.8 °F 94% 29.89 in 5.6 mi Calm Calm - N/A   Mostly Cloudy
7:30 AM 62.6 °F 60.8 °F 94% 29.89 in 5.6 mi Calm Calm - N/A   Mostly Cloudy
8:00 AM 62.6 °F 62.6 °F 100% 29.89 in 5.0 mi Variable 1.2 mph - N/A   Mostly Cloudy
8:30 AM 64.4 °F 64.4 °F 100% 29.89 in 4.3 mi Calm Calm - N/A   Mostly Cloudy
9:00 AM 64.4 °F 62.6 °F 94% 29.89 in 6.2 mi Variable 2.3 mph - N/A   Scattered Clouds
9:30 AM 66.2 °F 62.6 °F 88% 29.89 in 6.2 mi Variable 2.3 mph - N/A   Mostly Cloudy
10:00 AM 66.2 °F 60.8 °F 83% 29.89 in 6.2 mi NNW 4.6 mph - N/A   Mostly Cloudy
10:30 AM 68.0 °F 62.6 °F 83% 29.92 in 6.2 mi Variable 2.3 mph - N/A   Mostly Cloudy
11:00 AM 68.0 °F 60.8 °F 78% 29.89 in 6.2 mi NNW 4.6 mph - N/A   Mostly Cloudy
11:30 AM 68.0 °F 60.8 °F 78% 29.92 in 6.2 mi NNW 4.6 mph - N/A   Mostly Cloudy
12:00 PM 69.8 °F 60.8 °F 73% 29.92 in 6.2 mi NW 5.8 mph - N/A   Mostly Cloudy
12:30 PM 71.6 °F 60.8 °F 69% 29.89 in 6.2 mi Variable 3.5 mph - N/A   Mostly Cloudy
1:00 PM 69.8 °F 59.0 °F 68% 29.89 in 6.2 mi North 4.6 mph - N/A   Mostly Cloudy
1:30 PM 71.6 °F 59.0 °F 64% 29.89 in 6.2 mi Variable 2.3 mph - N/A   Mostly Cloudy
2:00 PM 71.6 °F 59.0 °F 64% 29.89 in 6.2 mi Variable 1.2 mph - N/A   Mostly Cloudy
2:30 PM 71.6 °F 59.0 °F 64% 29.89 in 6.2 mi North 4.6 mph - N/A   Mostly Cloudy
3:00 PM 69.8 °F 60.8 °F 73% 29.89 in 6.2 mi NW 5.8 mph - N/A   Mostly Cloudy
3:13 PM 66.2 °F 60.8 °F 83% 29.92 in 6.2 mi NW 13.8 mph - N/A Rain Light Rain
3:30 PM 66.2 °F 60.8 °F 83% 29.92 in 6.2 mi NW 11.5 mph - N/A Rain Light Rain
4:00 PM 66.2 °F 62.6 °F 88% 29.92 in 6.2 mi NW 13.8 mph - N/A   Mostly Cloudy
4:30 PM 64.4 °F 60.8 °F 88% 29.95 in 6.2 mi NW 13.8 mph - N/A   Mostly Cloudy
5:00 PM 60.8 °F 55.4 °F 82% 29.95 in 6.2 mi NNW 18.4 mph - N/A   Mostly Cloudy
5:30 PM 60.8 °F 57.2 °F 88% 29.98 in 6.2 mi NNW 11.5 mph - N/A Rain Light Rain
6:00 PM 60.8 °F 57.2 °F 88% 29.95 in 6.2 mi North 5.8 mph - N/A Rain Light Rain
6:30 PM 60.8 °F 57.2 °F 88% 29.98 in 6.2 mi NW 5.8 mph - N/A Rain Light Rain Showers
7:04 PM 60.8 °F 57.2 °F 88% 29.98 in 5.0 mi WSW 5.8 mph - N/A Rain Light Rain Showers
7:30 PM 60.8 °F 59.0 °F 94% 29.98 in 5.0 mi Variable 3.5 mph - N/A   Mostly Cloudy
8:00 PM 60.8 °F 59.0 °F 94% 29.98 in 5.0 mi Variable 2.3 mph - N/A   Mostly Cloudy
8:30 PM 60.8 °F 59.0 °F 94% 29.98 in 5.6 mi West 2.3 mph - N/A   Mostly Cloudy
9:00 PM 60.8 °F 57.2 °F 88% 29.98 in 5.6 mi Calm Calm - N/A   Mostly Cloudy
9:30 PM 60.8 °F 59.0 °F 94% 30.01 in 6.2 mi South 5.8 mph - N/A   Mostly Cloudy
10:00 PM 60.8 °F 59.0 °F 94% 30.01 in 6.2 mi South 3.5 mph - N/A   Overcast
10:30 PM 60.8 °F 57.2 °F 88% 30.01 in 6.2 mi Calm Calm - N/A   Unknown
11:00 PM 60.8 °F 59.0 °F 94% 30.01 in 6.2 mi South 2.3 mph - N/A   Unknown
11:30 PM 60.8 °F 59.0 °F 94% 30.04 in 6.2 mi Calm Calm - N/A   Unknown